Temp
83 81 76 77 76 77 76 76 76 76 76 77 77 77 76 77 76 76 76 77 77 77 76 76 76 76 75 75 74 75 75 75 75 75 75 76 76 76 75 75 76 77 75
85 83 74 76 77 76 76 76 76 76 76 76 76 77 76 77 77 77 76 76 76 77 76 76 75 75 74 73 74 74 74 74 74 73 74 75 75 75 75 74 74 76 75
85 83 80 75 75 75 75 75 75 76 76 76 76 76 76 77 76 77 76 76 76 76 76 75 75 74 73 73 73 73 72 72 73 73 74 76 76 75 75 74 73 74 74
85 84 81 73 75 75 75 75 76 76 76 77 77 75 76 77 76 76 76 75 76 76 76 75 74 74 73 73 73 72 72 72 72 73 74 75 77 75 75 74 73 74 73
85 82 77 73 74 75 75 75 75 75 75 76 76 76 76 76 76 75 75 75 76 76 75 75 74 73 73 72 72 71 71 71 71 75 77 75 77 74 74 74 73 72 71
81 81 73 73 74 75 74 75 75 75 75 75 75 75 74 74 75 75 75 75 75 75 75 75 74 73 72 71 71 70 70 71 72 77 77 76 74 74 73 72 72 71 71
79 82 79 72 74 74 74 74 75 75 75 75 75 74 73 74 74 74 74 74 75 75 74 74 73 72 71 70 70 70 69 69 79 79 74 75 74 73 73 72 71 70 70
79 82 79 70 71 72 73 74 74 74 74 74 74 73 73 73 73 74 74 74 74 74 74 73 72 71 70 70 69 68 67 67 77 74 73 73 71 73 72 71 70 70 69
84 82 80 79 74 68 70 71 72 72 73 73 73 73 72 72 72 72 72 73 73 74 73 72 71 70 70 69 68 66 66 67 78 72 73 73 70 72 72 71 70 69 69
82 82 82 79 78 78 76 67 68 70 70 71 70 68 68 70 69 69 68 70 72 72 71 71 70 70 69 68 66 66 66 68 78 74 72 72 71 72 71 70 69 69 68
80 81 82 80 80 78 77 73 66 66 67 67 67 65 66 76 74 71 66 69 70 70 70 70 70 68 66 65 65 65 67 76 77 77 73 68 71 71 70 69 69 68 68
77 78 81 81 81 81 81 76 77 75 75 75 75 73 77 77 74 70 67 65 67 67 68 69 68 66 64 74 72 67 76 75 75 75 71 67 71 71 70 69 68 68 67
77 78 80 80 80 79 79 78 78 76 77 71 73 75 75 76 73 73 72 71 70 64 72 70 69 72 74 75 75 75 74 75 75 75 67 65 70 70 70 69 68 67 67
76 77 79 80 79 78 79 78 78 78 77 73 75 75 73 73 72 74 73 73 72 72 74 73 73 73 73 74 74 73 73 74 75 74 66 63 68 70 69 69 68 67 67
76 77 78 79 78 78 77 77 78 77 76 77 76 75 75 74 72 73 74 74 73 74 74 73 73 73 73 73 73 73 72 72 73 73 73 62 66 69 69 69 68 67 67
76 78 78 78 78 78 76 77 77 77 77 77 76 75 75 75 73 73 73 73 73 74 75 74 74 73 72 72 72 72 72 72 72 71 72 69 63 67 69 69 69 68 67
75 78 77 77 78 77 76 77 77 76 76 75 75 75 74 75 74 74 73 72 73 74 74 74 73 73 72 73 72 72 72 71 71 70 69 70 68 62 65 68 68 68 68
75 77 77 77 76 76 76 76 76 76 75 75 75 75 74 74 75 73 73 72 74 73 73 72 72 71 71 72 71 71 71 71 70 70 69 68 69 70 63 64 66 67 67
77 78 77 76 74 75 75 76 75 75 74 75 75 75 74 73 74 74 73 73 74 72 72 72 72 71 70 70 71 71 70 69 69 70 68 68 67 67 68 64 62 62 64
78 79 78 77 74 74 75 75 75 74 74 76 76 75 74 74 73 73 73 73 73 71 71 71 70 71 71 71 69 69 69 68 69 69 69 69 68 67 67 66 63 61 59
78 77 78 76 75 74 73 71 72 71 72 74 75 75 74 74 74 72 72 73 72 70 70 71 70 69 68 69 64 63 63 67 68 68 68 68 68 67 66 65 64 63 62
77 76 77 76 76 74 74 74 74 74 74 74 74 74 74 73 73 72 71 71 72 70 70 70 69 67 68 66 63 61 56 61 65 67 67 67 67 68 66 65 64 62 60
76 76 76 76 77 76 75 74 74 74 74 72 72 72 72 72 71 72 71 71 71 71 69 69 69 66 64 66 65 63 57 57 64 66 65 66 66 66 66 66 63 61 60
75 76 76 77 77 77 76 73 71 69 69 72 72 72 72 71 71 71 71 71 70 71 69 69 69 68 66 64 62 63 65 65 59 58 65 64 66 65 65 65 64 62 59
77 75 75 76 77 77 76 73 71 70 71 74 74 71 71 70 70 71 70 70 69 69 69 68 67 66 67 66 65 61 60 60 60 56 55 60 64 64 64 65 65 63 60
79 75 75 75 75 76 75 73 72 71 70 70 71 70 70 69 69 69 70 70 70 69 68 67 67 67 66 66 67 66 61 59 58 57 54 56 57 61 65 64 63 61 61
MSLP
1016.64 1017.61 1018.13 1018.32 1018.53 1018.59 1018.61 1018.88 1019.04 1019.20 1019.33 1019.43 1019.59 1019.62 1019.74 1019.84 1019.91 1019.92 1019.95 1020.08 1020.19 1020.40 1020.48 1020.50 1020.61 1020.75 1020.90 1020.95 1021.03 1020.97 1020.93 1020.94 1020.94 1020.96 1020.91 1020.81 1020.78 1020.86 1020.86 1020.74 1020.49 1020.61 1020.67
1016.40 1017.51 1018.32 1018.44 1018.73 1018.92 1019.10 1019.29 1019.41 1019.50 1019.64 1019.87 1019.93 1019.96 1020.13 1020.18 1020.29 1020.34 1020.38 1020.48 1020.56 1020.75 1020.98 1021.05 1021.14 1021.25 1021.46 1021.54 1021.57 1021.58 1021.62 1021.61 1021.54 1021.36 1021.17 1021.20 1021.24 1021.20 1021.25 1021.20 1021.03 1021.00 1020.99
1016.53 1017.62 1018.30 1018.65 1018.97 1019.20 1019.40 1019.60 1019.76 1019.86 1019.99 1020.14 1020.23 1020.33 1020.41 1020.52 1020.63 1020.62 1020.74 1020.82 1020.88 1021.14 1021.48 1021.54 1021.64 1021.77 1021.94 1021.99 1022.09 1022.14 1022.13 1022.05 1021.88 1021.54 1021.13 1021.26 1021.53 1021.55 1021.53 1021.58 1021.58 1021.43 1021.38
1016.72 1017.46 1018.17 1018.96 1019.13 1019.41 1019.58 1019.76 1019.99 1020.21 1020.38 1020.46 1020.54 1020.70 1020.81 1020.87 1020.98 1020.99 1021.14 1021.17 1021.29 1021.56 1021.84 1021.92 1022.09 1022.18 1022.28 1022.38 1022.48 1022.56 1022.50 1022.31 1022.08 1021.78 1021.78 1021.65 1021.60 1021.86 1021.85 1021.98 1022.02 1021.89 1021.87
1016.85 1017.59 1018.50 1019.14 1019.33 1019.47 1019.82 1020.01 1020.14 1020.42 1020.60 1020.76 1020.90 1021.03 1021.16 1021.28 1021.37 1021.41 1021.54 1021.56 1021.74 1021.94 1022.11 1022.22 1022.44 1022.62 1022.67 1022.78 1022.84 1022.85 1022.74 1022.62 1022.40 1022.08 1021.83 1021.91 1021.72 1022.15 1022.22 1022.41 1022.59 1022.73 1022.79
1017.33 1017.90 1018.95 1019.28 1019.52 1019.74 1019.98 1020.24 1020.38 1020.52 1020.77 1021.03 1021.22 1021.41 1021.59 1021.73 1021.73 1021.77 1021.84 1021.96 1022.03 1022.34 1022.42 1022.59 1022.80 1022.95 1023.11 1023.18 1023.20 1023.21 1023.03 1022.74 1022.45 1022.15 1021.89 1021.98 1022.27 1022.46 1022.76 1023.06 1023.10 1023.17 1023.14
1017.80 1017.78 1018.83 1019.43 1019.65 1019.86 1020.15 1020.40 1020.60 1020.73 1020.88 1021.17 1021.53 1021.76 1021.93 1022.06 1022.11 1022.18 1022.20 1022.31 1022.39 1022.64 1022.83 1023.05 1023.21 1023.38 1023.53 1023.56 1023.52 1023.46 1023.23 1022.83 1022.08 1021.97 1022.21 1022.44 1022.81 1022.99 1023.13 1023.48 1023.46 1023.50 1023.46
1017.75 1017.84 1018.68 1019.53 1019.79 1020.03 1020.23 1020.52 1020.78 1020.93 1021.11 1021.24 1021.71 1021.98 1022.23 1022.40 1022.47 1022.50 1022.53 1022.59 1022.69 1022.99 1023.15 1023.39 1023.63 1023.77 1023.84 1023.82 1023.79 1023.67 1023.39 1023.04 1022.36 1022.74 1022.78 1023.03 1023.25 1023.22 1023.50 1023.71 1023.81 1023.78 1023.77
1017.23 1017.89 1018.61 1019.13 1019.72 1020.19 1020.42 1020.63 1020.82 1021.13 1021.41 1021.61 1021.85 1022.13 1022.42 1022.62 1022.77 1022.90 1022.97 1022.97 1023.03 1023.18 1023.49 1023.74 1023.91 1023.97 1024.00 1024.03 1024.06 1023.99 1023.65 1023.10 1022.67 1023.23 1023.21 1023.39 1023.67 1023.57 1023.77 1024.01 1024.11 1024.11 1024.10
1017.39 1017.74 1018.12 1018.85 1019.46 1019.76 1020.36 1020.81 1021.01 1021.23 1021.47 1021.73 1022.14 1022.47 1022.76 1022.95 1023.16 1023.34 1023.40 1023.44 1023.49 1023.66 1023.78 1023.92 1024.10 1024.23 1024.28 1024.32 1024.28 1024.05 1023.70 1023.27 1022.80 1023.30 1023.59 1023.89 1023.88 1023.87 1024.04 1024.28 1024.29 1024.30 1024.36
1017.59 1017.78 1017.91 1018.45 1018.94 1019.54 1019.91 1020.63 1021.19 1021.41 1021.65 1021.88 1022.20 1022.59 1022.86 1022.73 1023.17 1023.48 1023.59 1023.61 1023.70 1023.90 1024.12 1024.25 1024.31 1024.41 1024.45 1024.48 1024.38 1024.09 1023.73 1023.31 1023.22 1023.20 1023.84 1024.32 1024.06 1024.13 1024.32 1024.44 1024.58 1024.63 1024.66
1017.46 1017.81 1017.86 1018.24 1018.58 1018.97 1019.43 1020.41 1020.67 1021.24 1021.53 1021.68 1022.02 1022.45 1022.22 1022.39 1022.86 1023.34 1023.64 1023.87 1023.91 1024.04 1024.15 1024.22 1024.26 1024.38 1024.38 1023.85 1024.05 1023.90 1023.54 1023.64 1023.59 1023.69 1024.30 1024.50 1024.28 1024.35 1024.47 1024.61 1024.78 1024.92 1024.99
1017.42 1017.68 1017.89 1018.18 1018.52 1018.88 1019.30 1019.86 1020.11 1020.75 1020.97 1021.55 1021.77 1021.97 1022.16 1022.33 1022.95 1023.26 1023.56 1023.83 1023.90 1024.10 1023.88 1024.12 1024.32 1024.04 1023.70 1023.57 1023.65 1023.65 1023.80 1023.69 1023.70 1023.80 1024.46 1024.60 1024.43 1024.55 1024.71 1024.83 1024.94 1025.10 1025.23
1017.16 1017.41 1017.81 1017.98 1018.37 1018.84 1019.28 1019.63 1019.72 1020.16 1020.54 1021.28 1021.45 1021.74 1022.07 1022.26 1022.55 1022.56 1022.88 1023.20 1023.45 1023.72 1023.51 1023.66 1023.66 1023.72 1023.80 1023.78 1023.81 1023.87 1023.87 1023.76 1023.69 1023.88 1024.45 1024.65 1024.59 1024.62 1024.71 1024.83 1024.92 1025.09 1025.25
1016.71 1016.97 1017.39 1017.73 1018.11 1018.54 1019.05 1019.44 1019.57 1019.89 1020.37 1020.60 1020.97 1021.54 1021.77 1021.93 1022.25 1022.36 1022.49 1022.76 1022.99 1023.16 1023.31 1023.41 1023.41 1023.60 1023.67 1023.75 1023.81 1023.85 1023.93 1023.92 1023.96 1023.94 1023.99 1024.50 1024.44 1024.40 1024.46 1024.58 1024.74 1024.92 1025.10
1016.25 1016.28 1016.95 1017.43 1017.80 1018.23 1018.68 1018.98 1019.33 1019.74 1020.03 1020.34 1020.54 1021.01 1021.44 1021.55 1021.88 1022.07 1022.23 1022.53 1022.71 1022.88 1022.99 1023.00 1023.08 1023.24 1023.31 1023.47 1023.67 1023.74 1023.78 1023.89 1023.99 1024.27 1024.20 1024.33 1024.64 1024.56 1024.54 1024.51 1024.61 1024.80 1024.99
1015.78 1015.97 1016.43 1017.04 1017.44 1017.82 1018.21 1018.59 1019.00 1019.43 1019.71 1020.06 1020.45 1020.82 1021.21 1021.33 1021.52 1021.74 1021.96 1022.21 1022.36 1022.60 1022.74 1022.94 1023.02 1023.13 1023.13 1023.19 1023.29 1023.46 1023.70 1023.84 1023.95 1024.19 1024.38 1024.35 1024.31 1024.60 1024.62 1024.64 1024.73 1024.70 1024.68
1015.30 1015.26 1015.89 1016.50 1017.01 1017.48 1017.75 1018.10 1018.59 1018.94 1019.37 1019.69 1020.01 1020.33 1020.73 1021.07 1021.21 1021.51 1021.63 1021.86 1022.02 1022.28 1022.55 1022.64 1022.74 1022.93 1023.02 1022.97 1022.97 1023.02 1023.27 1023.54 1023.76 1023.94 1023.96 1024.07 1024.07 1024.01 1024.35 1024.44 1024.38 1024.48 1024.52
1014.34 1014.50 1015.02 1015.81 1016.57 1017.00 1017.40 1017.71 1018.10 1018.42 1018.89 1019.15 1019.43 1019.80 1020.13 1020.46 1020.83 1021.00 1021.26 1021.53 1021.77 1022.07 1022.23 1022.24 1022.36 1022.52 1022.70 1022.73 1022.78 1022.82 1022.99 1023.21 1023.41 1023.59 1023.63 1023.67 1023.80 1023.78 1023.66 1023.58 1023.98 1024.26 1024.45
1013.17 1013.71 1014.39 1015.06 1015.79 1016.38 1016.82 1017.30 1017.61 1017.97 1018.31 1018.47 1018.69 1019.09 1019.62 1019.99 1020.33 1020.63 1020.74 1021.05 1021.43 1021.75 1021.85 1022.01 1022.08 1022.21 1022.41 1022.40 1022.66 1022.79 1022.89 1022.97 1023.03 1022.98 1023.12 1023.18 1023.24 1023.20 1023.27 1023.35 1023.64 1023.99 1024.22
1012.23 1012.78 1013.42 1014.08 1014.75 1015.63 1015.83 1016.23 1016.77 1016.97 1017.55 1017.80 1017.98 1018.52 1019.01 1019.46 1019.76 1020.07 1020.29 1020.52 1020.91 1021.21 1021.31 1021.50 1021.79 1021.94 1022.14 1022.45 1022.67 1022.85 1022.99 1022.90 1022.66 1022.60 1022.79 1022.72 1022.50 1022.47 1022.67 1022.85 1023.18 1023.49 1023.54
1011.01 1011.66 1012.29 1012.95 1013.81 1014.43 1014.75 1015.17 1015.71 1016.16 1016.56 1017.10 1017.48 1017.79 1018.26 1018.68 1019.08 1019.45 1019.77 1019.95 1020.25 1020.65 1020.84 1021.08 1021.32 1021.48 1021.67 1022.00 1022.40 1022.75 1022.69 1022.36 1021.86 1021.83 1022.00 1022.03 1021.97 1022.03 1022.20 1022.55 1022.69 1022.82 1022.82
1010.14 1010.50 1011.01 1011.74 1012.53 1013.22 1013.84 1014.54 1015.05 1015.57 1015.90 1016.24 1016.67 1017.06 1017.36 1017.90 1018.46 1018.78 1019.12 1019.41 1019.61 1019.92 1020.19 1020.47 1020.69 1021.04 1021.23 1021.59 1021.94 1022.05 1021.94 1021.53 1021.02 1020.83 1021.36 1021.40 1021.50 1021.60 1021.60 1021.69 1021.78 1021.97 1022.41
1008.94 1009.45 1009.96 1010.52 1011.12 1011.83 1012.82 1013.54 1013.80 1014.12 1014.35 1014.63 1015.38 1015.95 1016.49 1017.09 1017.49 1017.99 1018.39 1018.70 1018.93 1019.21 1019.56 1019.68 1020.03 1020.34 1020.72 1020.80 1021.48 1021.68 1021.39 1021.24 1021.22 1020.83 1020.57 1020.98 1021.02 1021.08 1020.98 1020.86 1020.89 1021.32 1021.75
1007.61 1008.44 1008.89 1009.24 1009.92 1010.58 1011.26 1012.32 1012.88 1013.11 1013.50 1014.00 1014.48 1014.99 1015.54 1016.10 1016.61 1016.95 1017.39 1017.71 1017.98 1018.30 1018.66 1019.05 1019.35 1019.64 1019.86 1020.14 1020.24 1020.94 1021.23 1021.27 1021.38 1021.36 1020.58 1020.35 1020.23 1020.31 1020.37 1020.17 1020.17 1020.67 1021.06
1006.28 1007.23 1008.08 1008.54 1008.87 1009.48 1010.19 1010.85 1011.44 1011.76 1012.41 1013.12 1013.47 1013.97 1014.37 1015.04 1015.55 1015.88 1016.26 1016.65 1016.94 1017.28 1017.74 1018.11 1018.54 1018.87 1019.14 1019.37 1019.56 1019.67 1020.10 1020.23 1020.40 1020.65 1020.68 1020.41 1020.22 1019.85 1019.62 1019.48 1019.87 1020.16 1020.07
Wind_Speed
9 12 7 11 12 12 16 15 15 14 14 14 14 14 14 14 13 14 13 14 18 17 15 16 17 17 17 17 16 18 18 17 17 17 17 16 17 16 14 13 11 14 14
13 13 8 11 12 13 14 13 12 12 13 12 11 12 13 13 14 15 12 14 16 16 15 16 16 17 17 16 16 16 17 16 14 8 14 14 15 15 15 15 14 12 13
12 14 11 10 12 13 13 12 11 10 11 11 11 11 11 13 12 14 13 14 16 15 15 16 16 16 16 15 16 15 13 12 9 7 9 8 11 12 14 14 14 11 12
12 12 12 10 13 13 13 12 11 11 10 9 9 11 11 11 10 14 12 14 15 14 15 16 16 16 15 15 15 13 11 9 7 4 5 6 9 9 12 13 16 19 20
11 10 13 10 12 13 11 11 12 12 11 9 11 10 10 11 10 13 11 12 14 13 14 15 15 15 14 13 13 10 7 6 6 7 7 6 4 8 10 17 18 19 18
10 11 12 10 11 12 11 11 13 13 12 11 11 11 10 9 9 11 10 12 14 13 14 14 14 14 12 11 11 9 7 8 5 5 7 9 12 14 19 17 16 15 13
9 10 12 9 9 10 10 12 12 12 13 13 10 11 11 9 8 10 9 12 15 11 13 13 12 12 11 10 9 8 7 9 6 9 7 10 11 16 18 15 14 14 12
10 10 12 9 8 8 9 11 11 12 13 15 13 11 11 8 8 10 8 11 13 12 12 11 11 11 9 9 8 8 7 8 5 11 7 8 10 16 16 13 13 13 13
11 10 10 11 9 7 8 9 10 11 12 13 12 11 10 8 7 8 8 7 10 11 11 10 9 9 9 8 8 8 6 9 9 6 8 7 10 15 14 12 12 12 12
10 10 11 9 11 11 10 7 8 12 13 13 10 9 8 8 8 6 6 7 10 9 9 8 8 9 8 8 7 3 3 9 7 8 5 6 11 13 12 11 11 10 10
9 10 10 12 11 9 9 9 7 10 10 11 11 10 10 8 8 7 6 8 10 8 6 5 6 8 7 6 3 3 7 4 4 4 5 7 8 10 9 10 9 9 8
12 11 11 11 11 11 9 11 11 10 9 8 8 10 7 7 7 4 7 6 8 7 6 6 6 7 7 5 4 6 3 3 4 3 5 7 6 8 8 8 7 7 7
13 10 12 11 11 11 8 8 6 6 6 4 8 9 5 6 6 6 5 5 6 6 6 6 6 6 2 2 2 2 2 1 2 2 5 5 5 6 6 7 6 6 5
15 14 13 13 11 11 8 8 8 7 7 6 9 10 7 5 7 7 6 7 6 6 5 5 4 3 4 3 2 2 1 0 1 1 5 2 2 5 4 4 4 4 3
16 15 15 14 13 12 11 9 8 8 7 9 9 10 8 8 7 7 6 6 6 6 6 5 4 5 4 4 4 3 3 2 2 0 2 5 7 8 7 5 5 4 3
16 16 15 15 14 13 11 12 9 8 9 8 8 9 12 8 7 7 7 7 7 6 6 5 5 5 5 4 5 4 4 4 4 1 4 4 5 6 7 7 6 5 4
16 15 15 16 15 14 14 11 9 7 7 7 7 10 12 10 10 9 7 7 7 6 7 6 5 5 5 5 5 5 5 6 5 4 3 4 4 7 7 7 6 7 7
17 18 17 13 15 15 13 10 9 8 8 7 8 8 12 12 11 9 6 7 6 6 7 7 6 6 6 6 6 5 5 6 6 6 6 5 5 5 8 8 10 10 10
19 19 19 18 17 17 14 10 10 11 9 9 9 8 12 12 12 9 7 6 7 6 6 6 6 6 6 6 5 5 5 5 6 7 8 7 7 6 5 8 11 8 10
19 19 18 16 18 17 12 11 9 9 9 9 9 9 12 10 12 10 8 8 7 6 7 6 7 6 6 5 5 6 5 5 7 6 8 7 7 9 8 8 5 6 11
18 19 20 20 18 14 12 12 11 11 10 10 9 12 12 12 13 11 8 9 9 8 8 9 8 8 6 5 2 1 3 8 9 7 7 8 9 9 9 8 5 4 5
20 19 19 20 19 17 12 11 11 10 10 9 9 10 13 13 12 11 10 9 10 8 10 9 9 7 6 6 5 4 3 5 9 9 8 8 10 8 7 8 8 9 8
20 21 21 21 21 19 17 11 10 9 9 10 11 11 12 14 13 13 13 10 10 9 8 10 10 10 7 6 9 5 4 5 1 7 9 8 9 7 7 8 10 11 8
20 20 20 21 23 20 20 15 18 13 13 12 11 10 11 15 15 15 14 13 12 9 10 9 9 10 9 8 4 7 10 7 3 4 4 6 8 9 10 8 8 8 9
20 19 21 23 22 21 20 19 15 15 12 10 10 13 14 13 16 16 16 15 14 11 12 11 11 11 9 9 8 4 6 8 8 7 9 7 6 7 7 8 7 6 8
18 19 19 21 21 21 20 23 22 21 17 13 13 12 11 11 11 16 16 15 14 13 13 12 12 13 11 10 9 9 8 5 7 7 8 11 9 9 8 8 6 7 8
Wind_Direction
137 121 126 130 127 129 114 110 107 106 105 104 102 101 99 101 98 87 79 93 91 88 83 82 83 85 84 83 80 77 76 72 70 73 75 76 74 73 65 40 59 59 53
134 127 129 133 134 125 113 109 105 108 108 112 110 108 103 106 103 100 97 101 97 90 90 91 90 89 87 86 82 81 81 78 76 52 96 84 67 66 64 53 47 50 51
137 127 142 125 129 124 120 120 118 119 119 118 113 106 109 111 109 102 92 99 100 94 94 94 94 94 89 88 83 81 78 67 43 26 34 80 76 66 69 57 43 42 57
140 146 142 128 131 131 134 131 122 113 114 115 118 107 114 117 115 101 94 95 95 96 101 100 96 98 92 85 84 80 77 63 39 39 67 27 82 68 65 60 63 53 53
146 131 121 135 139 141 144 135 125 121 115 114 109 111 116 115 112 108 105 107 102 103 107 103 100 97 92 88 84 81 72 39 351 45 40 53 58 64 80 79 63 57 52
143 136 131 139 146 148 150 141 130 127 125 114 113 111 104 109 114 105 102 113 108 110 109 106 101 96 93 89 80 69 38 6 100 60 50 64 80 84 79 68 62 58 54
150 145 151 146 147 148 153 150 142 139 128 122 118 112 113 117 120 114 105 114 105 116 109 107 103 98 92 86 78 61 27 345 21 52 54 77 81 83 73 64 60 56 54
164 148 140 148 143 150 151 151 149 143 137 129 124 124 121 126 126 119 111 104 116 117 117 109 104 100 95 86 74 55 18 339 75 43 53 74 82 78 74 66 62 61 64
151 165 158 167 154 140 150 151 153 143 138 128 132 130 129 128 120 118 118 106 111 124 116 114 114 109 101 87 72 53 10 331 73 68 56 71 76 79 75 65 67 68 68
163 175 171 151 170 164 159 150 142 142 143 134 125 117 114 125 100 79 103 106 109 108 123 132 126 112 101 80 69 52 306 298 66 95 64 63 84 81 78 73 74 74 71
179 185 179 166 184 170 172 152 140 145 137 131 132 127 145 148 159 162 81 119 122 121 126 126 133 125 119 101 87 288 289 50 55 45 74 15 87 82 85 80 77 75 73
190 193 188 184 186 177 182 156 171 163 165 165 162 165 184 155 117 116 112 118 126 135 137 137 152 162 200 167 158 232 67 52 57 48 75 9 99 98 92 89 86 77 73
203 197 198 191 191 186 183 180 173 171 177 153 164 178 180 160 157 175 158 172 168 183 178 178 171 208 194 211 141 89 84 40 67 83 82 15 121 105 96 97 94 81 75
205 200 199 196 194 188 184 194 184 186 181 171 190 187 178 181 181 187 178 185 187 189 197 198 189 180 199 206 183 147 105 341 83 28 111 80 138 133 130 129 123 108 102
210 205 198 199 194 190 194 197 194 196 192 194 188 189 195 194 189 190 191 191 197 195 197 200 196 197 203 203 195 203 199 214 190 221 113 180 188 183 185 179 172 168 164
219 207 201 202 197 195 196 197 196 199 193 208 199 189 204 198 190 195 194 199 202 199 204 207 202 205 206 199 211 217 218 224 224 260 301 180 235 204 209 212 209 209 196
218 210 206 201 200 202 199 202 201 199 202 204 203 201 204 206 199 197 199 200 203 196 207 212 213 224 221 208 227 212 231 236 240 228 248 285 202 229 249 248 249 243 235
213 211 204 201 202 205 201 199 203 202 201 200 204 199 203 210 209 203 202 206 203 195 204 209 211 213 223 218 222 224 214 231 233 234 231 230 239 254 198 231 245 247 245
212 211 205 202 200 205 206 203 205 204 201 204 205 202 201 204 209 206 209 208 202 204 209 214 214 220 215 228 236 241 242 246 244 237 238 228 238 246 248 205 206 233 253
208 212 208 202 197 205 199 206 206 203 208 210 206 203 207 204 205 208 208 206 201 206 211 212 217 211 236 226 238 246 247 245 249 238 243 241 234 236 234 244 192 217 228
204 207 208 204 197 200 197 197 203 206 204 210 209 208 207 209 205 206 213 210 201 210 215 214 214 224 212 239 246 246 292 266 253 245 241 246 237 230 234 233 227 239 221
206 205 205 206 201 202 200 199 204 204 205 211 206 207 209 209 209 205 209 213 209 211 219 219 214 216 226 179 207 225 250 224 230 232 231 238 241 245 233 229 233 226 229
210 204 206 203 205 204 202 200 202 211 210 206 208 208 208 207 206 208 210 214 212 213 217 217 215 213 220 202 203 221 226 232 344 188 218 230 233 237 244 233 226 229 230
214 212 204 205 205 203 198 202 200 201 203 207 203 206 201 204 208 209 210 212 217 214 219 220 212 216 214 225 180 231 252 286 280 286 185 219 236 236 239 236 236 225 220
210 211 207 206 206 204 200 201 203 206 214 203 207 203 203 199 206 209 208 212 212 215 219 216 215 215 221 221 216 180 227 248 254 247 279 262 232 217 235 243 243 225 219
210 206 209 211 208 206 203 202 207 207 207 206 205 205 201 201 201 208 209 211 212 213 216 214 218 216 217 225 228 222 215 205 206 222 238 265 262 268 253 219 220 229 233